カタログに戻る

STARLINK-34462

運用中通信VLEO
NORAD 64493·PAYLOAD·🇺🇸 United States

打ち上げ Jun 23, 2025 から Cape Canaveral Space Force Station

Loading…

次のパス (今後24時間)

TLE

最新Source: CelesTrak SupGP

元期: Sep 14, 2026, 22:51 UTC

1 64493C 25133X   26257.95256944  .00037707  00000+0  11141-2 0  2576
2 64493  53.1588 311.9036 0001279  85.6476  32.2059 15.34370868    13

AllMySatでSTARLINK-34462をリアルタイム追跡

Download on the App Store